Theta_e
289 287 288 286 286 285 285 285 284 283 282 280 280 280 280 279 279 279 279 278 278 278
288 288 287 286 287 286 286 285 283 284 282 281 281 280 279 279 279 278 279 278 278 277
288 288 288 286 286 286 285 284 283 283 282 281 280 280 279 278 278 278 278 278 278 277
288 288 287 286 285 285 284 283 282 282 281 281 280 279 279 278 278 277 277 277 277 277
286 285 286 285 284 284 283 283 282 282 281 280 280 279 278 277 277 277 276 276 275 275
285 285 285 286 284 283 283 282 282 281 280 280 279 278 278 277 276 276 275 275 275 274
285 286 286 285 284 283 282 281 280 280 280 279 278 278 277 276 275 274 274 275 275 274
286 285 285 283 282 282 281 281 281 279 278 278 277 277 276 276 275 274 273 274 275 274
284 283 283 282 281 280 280 279 279 277 277 276 277 280 281 277 275 274 274 273 274 275
283 282 282 280 279 279 278 278 277 277 276 276 276 283 282 280 275 274 274 275 275 275
282 281 279 278 278 277 277 277 276 276 276 275 275 283 283 280 275 275 275 275 275 275
280 279 277 277 277 277 276 276 276 276 275 274 275 283 283 280 276 276 275 275 275 274
279 279 277 278 277 277 276 276 275 274 275 275 274 283 283 280 275 273 274 275 275 277
276 276 277 277 276 276 275 275 274 273 273 274 275 279 283 282 274 273 272 273 273 274
Wind_Speed
13 10 10 12 10 10 11 12 13 13 12 10 11 9 8 5 5 6 5 7 5 3
11 13 13 12 11 10 10 10 13 15 14 13 12 11 10 7 8 7 6 5 5 3
14 14 12 11 15 13 11 13 14 15 14 13 13 12 11 7 7 8 4 4 6 4
14 13 11 10 11 12 11 13 15 15 15 15 14 13 12 10 10 9 8 5 6 6
8 8 11 12 12 12 13 13 14 13 14 14 15 14 14 13 11 11 10 9 7 6
10 12 15 16 13 13 13 13 12 13 14 15 15 15 13 13 12 10 10 9 9 7
15 18 16 13 13 14 14 14 14 14 14 15 15 15 14 12 11 10 9 9 8 8
15 12 12 12 13 13 14 14 14 14 13 13 14 12 15 14 13 12 10 9 9 8
9 11 13 12 13 13 13 13 14 14 15 15 11 23 27 18 13 12 12 12 10 8
12 13 14 13 14 14 15 14 15 15 16 16 14 29 28 26 13 13 12 11 10 9
10 11 10 12 14 13 12 14 14 14 15 14 13 30 29 27 13 11 11 11 11 9
9 11 12 13 13 11 12 12 13 13 14 15 12 28 27 22 11 10 10 8 8 8
5 9 14 13 13 10 10 11 10 11 12 14 14 28 27 19 9 9 7 7 8 13
1 4 4 6 6 9 11 11 10 11 10 12 14 18 27 26 9 9 8 7 6 4
Wind_Direction
187 184 188 180 176 184 190 190 176 181 180 173 168 169 167 168 165 164 168 181 182 169
194 189 194 187 184 186 182 179 171 180 180 177 173 172 167 173 173 169 166 177 173 156
199 207 197 183 191 187 178 167 169 178 181 177 174 172 169 167 162 166 160 162 170 175
198 198 193 195 193 186 171 172 175 181 180 178 176 172 172 170 163 168 160 163 178 180
190 181 195 197 189 179 181 180 181 179 181 181 178 173 173 170 172 172 171 174 169 180
181 185 204 206 192 179 178 180 179 177 181 182 178 171 173 171 168 173 167 169 176 178
200 205 206 197 186 181 181 175 179 183 182 179 174 171 166 163 161 165 167 170 172 181
212 200 194 188 184 179 180 180 179 176 174 172 170 167 165 166 165 166 164 169 179 188
193 188 191 184 178 175 177 174 172 176 172 170 175 178 173 162 164 167 171 177 186 187
195 191 189 177 174 179 179 172 178 176 174 177 173 177 174 170 166 171 177 174 176 184
192 191 178 175 180 176 174 177 179 178 175 169 175 178 178 175 168 169 173 177 177 180
194 174 173 185 182 170 167 175 180 175 168 168 172 179 178 170 163 169 173 176 176 193
215 197 182 178 176 171 169 170 166 167 171 167 164 179 180 167 161 165 168 177 189 196
196 169 190 163 161 158 161 153 166 161 158 164 165 179 178 173 172 167 163 174 192 185